Cloud_Cover
5 5 5 5 5 1 0 0 0 0 2 5 78 82 18 18 5 10 4 5 4 5 5 3 3 0 0 0 0 0 84 100 100 100 67 88 6 55 35 100 100 100 100
9 5 5 4 2 3 3 2 0 2 0 5 10 5 5 5 5 5 2 3 4 5 0 0 0 0 0 0 0 0 0 37 100 97 100 95 99 43 95 65 100 100 100
5 5 6 66 5 5 5 5 5 5 24 79 94 38 6 7 32 38 9 5 5 1 9 3 4 20 38 31 39 0 0 0 9 100 100 100 99 96 100 69 100 100 100
100 100 100 100 100 100 100 100 100 100 100 88 40 57 45 21 5 4 0 0 0 12 28 100 100 100 100 100 100 100 97 9 0 22 24 100 100 100 100 100 100 100 100
100 100 100 100 57 9 0 2 2 0 0 0 2 2 2 0 0 0 5 54 93 75 100 82 100 100 100 100 100 100 100 100 100 90 99 100 100 100 100 100 100 100 100
5 5 2 0 1 0 1 3 1 0 1 0 0 0 0 0 0 2 99 45 90 100 100 64 64 100 100 100 100 100 100 100 100 100 100 100 99 100 100 100 100 100 100
5 3 5 3 4 36 5 4 3 1 1 0 0 0 0 0 0 0 2 68 47 79 100 100 100 100 100 100 100 100 100 100 100 100 100 100 100 100 100 100 100 100 100
5 5 5 1 2 2 0 2 0 0 0 0 0 0 0 14 1 2 11 17 5 19 84 100 100 100 100 100 100 100 100 100 100 100 100 100 100 100 100 100 100 100 100
5 5 5 5 4 0 0 0 0 0 0 0 2 0 1 3 4 2 5 7 21 9 42 95 100 100 100 100 100 100 100 100 100 100 100 100 100 100 100 100 100 100 100
28 5 62 12 5 2 4 5 2 4 0 1 4 5 9 56 42 34 3 5 77 23 69 100 99 100 100 100 100 100 100 100 100 100 100 100 100 100 100 100 100 100 100
100 98 17 7 5 5 5 7 34 0 1 5 5 5 5 89 46 95 89 80 36 100 100 100 100 100 100 100 100 100 100 100 100 100 100 100 100 100 100 100 100 100 100
7 26 14 35 82 98 99 90 4 0 0 1 5 7 86 75 100 100 100 100 59 99 100 91 99 100 70 99 100 100 100 100 100 100 100 100 100 100 100 100 100 100 100
5 2 3 7 26 8 0 3 2 5 5 4 5 7 92 100 100 100 100 100 96 100 100 100 100 80 100 100 100 94 100 100 100 100 100 100 100 100 100 100 100 100 100
0 2 4 4 5 5 5 5 5 0 5 5 5 25 6 83 100 100 100 100 93 79 100 100 100 73 62 100 100 89 79 100 100 100 100 100 100 100 100 100 100 100 100
12 5 5 5 5 4 5 2 0 2 1 5 5 5 18 6 46 86 100 100 100 100 100 100 100 100 92 55 99 100 99 100 100 100 100 100 100 100 100 100 100 100 100
4 0 0 0 0 3 5 0 0 4 5 5 5 5 5 5 4 5 21 58 100 100 99 100 99 100 100 34 90 100 100 97 96 99 100 100 100 100 100 100 100 100 100
0 0 0 5 4 5 2 3 5 5 5 5 5 5 5 5 4 5 5 5 86 22 98 64 100 100 91 7 71 97 100 93 94 100 100 100 100 100 100 100 100 100 100
2 4 24 5 5 5 8 15 5 5 5 5 5 5 5 5 5 5 5 5 5 92 51 100 89 76 6 5 5 78 66 100 97 100 100 100 96 98 98 100 100 100 100
8 50 6 5 5 60 63 31 5 5 5 5 5 5 5 5 5 5 5 5 5 14 34 51 5 31 5 5 5 5 54 98 100 100 100 100 100 100 100 100 100 100 100
57 5 5 10 84 80 45 5 5 5 5 5 5 5 5 5 5 5 5 5 5 5 5 41 5 5 5 5 5 5 5 92 99 100 100 100 100 100 100 94 70 100 100
40 66 71 100 83 69 55 5 5 5 5 5 5 5 5 2 0 0 1 5 5 5 5 5 5 5 5 5 5 5 5 24 50 93 100 100 87 100 99 100 100 100 100
53 100 100 78 100 37 5 5 33 5 5 5 5 5 5 5 3 0 0 0 0 3 5 5 5 5 5 5 5 5 5 5 97 5 65 100 100 100 100 100 100 100 100
99 100 98 85 23 8 5 5 5 5 5 11 5 5 1 5 2 0 0 0 0 4 2 5 5 16 18 5 5 1 0 3 100 59 5 81 100 100 100 100 100 100 100
100 100 100 45 53 5 5 5 5 8 13 5 5 5 5 4 3 2 0 0 0 4 5 5 5 27 93 83 5 5 0 1 43 28 4 7 85 100 100 100 100 100 100
100 99 100 78 48 5 6 5 5 5 5 5 5 5 5 5 0 3 0 0 0 3 43 98 100 100 100 100 100 4 5 5 5 89 5 18 43 6 100 100 100 100 100
100 100 100 100 100 100 68 32 17 9 8 11 15 22 5 5 5 5 0 0 5 5 30 16 98 93 47 5 25 82 55 10 5 13 5 30 6 21 11 55 100 100 100